Regional Weather Roundup
Issued by NWS State College, PA

Home | Current Version | Previous Version | Text Only | Print | Product List | Glossary Off
Versions: 1 2 3 4 5 6 7 8 9 10 11 12 13 14 15 16 17 18 19 20 21 22 23 24 25 26 27 28 29 30 31 32 33 34 35 36 37 38 39 40 41 42 43 44 45 46 47 48 49 50

948
ASUS41 KCTP 292103
RWRCTP

REGIONAL WEATHER ROUNDUP
NATIONAL WEATHER SERVICE STATE COLLEGE PA
500 PM EDT FRI JUL 29 2016

Note: "fair" indicates few or no clouds below 12,000 feet with no
significant weather and/or obstructions to visibility.

* = STATION THAT DOES NOT REPORT PRECIPITATION /E.G. RAIN...SNOW...ETC/
    THUNDER OR FOG.

PAZ002>004-007>009-013>016-020>023-029>032-292200-
WESTERN PENNSYLVANIA

CITY           SKY/WX    TMP DP  RH WIND       PRES   REMARKS
ERIE           CLOUDY    82  68  62 NE13      29.95S
MEADVILLE      CLOUDY    68  66  93 NE7       29.97F
FRANKLIN*      CLOUDY    66  64  94 NE13      30.00R
NEW CASTLE     MOCLDY    85  65  51 S3        29.93F
BEAVER COUNTY  MOSUNNY   86  66  51 SW5       29.93F
BUTLER*        MOSUNNY   84  64  51 S3        29.96S
PITTSBURGH INT PTSUNNY   83  63  50 CALM      29.92F
PITTSBURGH     SUNNY     83  64  52 S3        29.93F
INDIANA*       MOSUNNY   84  66  54 SW5       29.98R
LATROBE        MOSUNNY   82  64  54 W5        29.95F
WASHINGTON CO* MOSUNNY   84  64  51 S5        29.94F
$$

PAZ004>006-010>012-017>019-024>028-033>037-041-042-045-046-049>053-292200-
CENTRAL PENNSYLVANIA

CITY           SKY/WX    TMP DP  RH WIND       PRES   REMARKS
BRADFORD       CLOUDY    75  65  70 N13       30.00R
DUBOIS         CLOUDY    77  63  61 NE12G20   29.99R
CLEARFIELD     PTSUNNY   85  63  47 NE7       29.95S
JOHNSTOWN      SUNNY     79  60  52 NW5       29.99S
ALTOONA        SUNNY     84  63  49 SW3       29.94F
STATE COLLEGE  SUNNY     88  63  42 W6        29.91S
WILLIAMSPORT   PTSUNNY   89  59  36 NE6       29.85R
SELINSGROVE    MOSUNNY   87  69  54 CALM      29.86S
FT INDIANTOWN  SUNNY     89  66  47 NE3       29.87S
CAPITAL CITY   MOSUNNY   91  63  39 NE6       29.86S
HARRISBURG     MOSUNNY   90  69  50 CALM      29.85S
YORK           SUNNY     88  68  51 VRB3      29.88S
$$

PAZ038>040-043-044-047-048-054-055-060>062-067>071-292200-
EASTERN PENNSYLVANIA

CITY           SKY/WX    TMP DP  RH WIND       PRES   REMARKS
SCRANTON       CLOUDY    87  62  43 N12       29.88R
MOUNT POCONO   SUNNY     82  61  48 N8        29.94S
ALLENTOWN      SUNNY     89  66  46 N5        29.85S
QUAKERTOWN*    PTCLDY    86  66  51 CALM      29.88R
READING        PTSUNNY   90  66  45 VRB5      29.85S
LANCASTER      PTSUNNY   86  68  54 CALM      29.87S
COATESVILLE    PTCLDY    84  68  58 N5        29.90S
POTTSTOWN      MOSUNNY   87  66  49 NE6       29.88R
BLUE BELL      SUNNY     84  68  58 CALM      29.85S
DOYLESTOWN     SUNNY     85  69  58 N5        29.86S
WILLOW GROVE   NOT AVBL
NORTH PHILA    CLOUDY    86  70  58 SE8       29.87R
PHILADELPHIA   MOSUNNY   86  65  49 N7        29.86R
$$




USA.gov is the U.S. government's official web portal to all federal, state and local government web resources and services.